Location: Stanford
(52.2833°N, 2.4333°W)
Time: 03:16:30
(UTC+00:00)

YAOGAN 1 - Pass Details

Date: 22 January 2021
Orbit: 618 x 620 km, 97.9° (Epoch: 24 February)

Event Time Altitude Azimuth Distance (km) Brightness Sun altitude
Rises 17:29:16 0° 127° (SE) 2,893 5.7 -7.7°
Reaches altitude 10° 17:31:48 10° 113° (ESE) 1,991 4.7 -8.1°
Maximum altitude 17:35:12 23° 61° (ENE) 1,331 3.7 -8.5°
Drops below altitude 10° 17:38:37 10° 9° (N) 2,002 4.9 -9.0°
Sets 17:41:09 0° 355° (N) 2,913 5.9 -9.4°
